Inquirer Daily News

Weather

Get conditions and forecasts for any City, State, ZIP code or Country:  
Northeast Philadelphia, PA
on Friday, November 16, 2012

Friday
Previous Day Next Day
Daily Summary
 ActualAverage (KTTN)Record (KTTN)
Temperature
Mean Temperature °F 46°F  
Max Temperature 48°F 55°F 73°F (2005)
Min Temperature 33°F 37°F 16°F (1996)
Degree Days
Heating Degree Days 24 19  
Month to date heating degree days 273  
Since 1 July heating degree days 670  
Cooling Degree Days 0 0  
Month to date cooling degree days 0  
Year to date cooling degree days 965  
Moisture
Dew Point 26°F   
Average Humidity 61    
Maximum Humidity 79    
Minimum Humidity 41    
Precipitation
Precipitation 0.00 in 0.10 in 2.02 in (1926)
Month to date precipitation 1.65  
Year to date precipitation 41.08  
Wind
Wind Speed 5 mph   
Max Wind Speed 8 mph   
Max Gust Speed mph   
Visibility 10 miles   
Events     

Key: T is trace of precipitation, MM is missing value
Source: NWS Daily Summary
Time(EST)TemperatureDew PointHumidity Pressure Visibility Wind DirectionWind SpeedGust SpeedPrecipitationEvents Conditions
12:54 AM 36.0°F 30.0°F 79% 30.32 in 10.0 miles North 5.8 mph - N/A   Clear
1:54 AM 36.0°F 28.9°F 76% 30.32 in 10.0 miles NNW 5.8 mph - N/A   Clear
2:54 AM 36.0°F 28.0°F 73% 30.33 in 10.0 miles NNW 4.6 mph - N/A   Clear
3:54 AM 36.0°F 28.0°F 73% 30.32 in 10.0 miles North 6.9 mph - N/A   Clear
4:54 AM 36.0°F 27.0°F 70% 30.33 in 10.0 miles North 3.5 mph - N/A   Clear
5:54 AM 37.0°F 27.0°F 67% 30.32 in 10.0 miles North 5.8 mph - N/A   Clear
6:54 AM 37.0°F 26.1°F 65% 30.33 in 10.0 miles North 5.8 mph - N/A   Clear
7:54 AM 37.9°F 27.0°F 65% 30.36 in 10.0 miles North 5.8 mph - N/A   Clear
8:54 AM 39.9°F 27.0°F 60% 30.36 in 10.0 miles North 8.1 mph - N/A   Partly Cloudy
9:54 AM 42.1°F 27.0°F 55% 30.37 in 10.0 miles NNE 6.9 mph - N/A   Clear
10:54 AM 43.0°F 26.1°F 51% 30.35 in 10.0 miles North 8.1 mph - N/A   Clear
11:54 AM 44.1°F 27.0°F 51% 30.35 in 10.0 miles NNE 8.1 mph - N/A   Clear
12:54 PM 45.0°F 27.0°F 49% 30.34 in 10.0 miles North 4.6 mph - N/A   Clear
1:54 PM 46.9°F 25.0°F 42% 30.34 in 10.0 miles Calm Calm - N/A   Clear
2:54 PM 48.0°F 25.0°F 41% 30.35 in 10.0 miles North 6.9 mph - N/A   Clear
3:54 PM 48.0°F 25.0°F 41% 30.36 in 10.0 miles North 6.9 mph - N/A   Clear
4:54 PM 43.0°F 25.0°F 49% 30.36 in 10.0 miles North 4.6 mph - N/A   Clear
5:54 PM 44.1°F 24.1°F 45% 30.38 in 10.0 miles Calm Calm - N/A   Clear
6:54 PM 37.9°F 25.0°F 60% 30.40 in 10.0 miles Calm Calm - N/A   Clear
7:54 PM 36.0°F 26.1°F 67% 30.41 in 10.0 miles NNW 3.5 mph - N/A   Clear
8:54 PM 35.1°F 26.1°F 70% 30.43 in 10.0 miles NNW 5.8 mph - N/A   Clear
9:54 PM 35.1°F 26.1°F 70% 30.44 in 10.0 miles NNW 4.6 mph - N/A   Clear
10:54 PM 33.1°F 25.0°F 72% 30.45 in 10.0 miles NNW 6.9 mph - N/A   Clear
11:54 PM 34.0°F 23.0°F 64% 30.46 in 10.0 miles North 3.5 mph - N/A   Clear
Astronomy
Sunrise:06:47 AM (EST) Moon Rise:09:39 AM (EST)11/16
Sunset:04:42 PM (EST) Moon Set:07:39 PM (EST)11/16
Moon Phase
Nov. 16 Nov. 20 Nov. 28 Dec. 06 Dec. 13

Copyright © 2014 The Weather Underground, Inc.